| time (UTC) | temp F | wind direction | speed MPH | gust MPH | rain 1hr in | rain 24hr in | rain mn in | humidity % | barometer mb |
| 20260507094017 | 35 | 139 | 1.0 | 3.0 | 0.00 | 0.40 | 0.00 | 64 | 1021.1 |
| 20260507093017 | 35 | 138 | 2.0 | 4.0 | 0.00 | 0.40 | 0.00 | 64 | 1021.1 |
| 20260507092016 | 35 | 139 | 1.0 | 4.0 | 0.00 | 0.40 | 0.00 | 65 | 1021.0 |
| 20260507091015 | 36 | 133 | 2.0 | 5.0 | 0.00 | 0.40 | 0.00 | 64 | 1021.1 |
| 20260507090016 | 35 | 138 | 3.0 | 10.0 | 0.00 | 0.40 | 0.00 | 64 | 1021.0 |
| 20260507085016 | 35 | 138 | 2.0 | 5.0 | 0.00 | 0.40 | 0.00 | 67 | 1021.1 |
| 20260507084017 | 35 | 138 | 2.0 | 4.0 | 0.00 | 0.40 | 0.00 | 67 | 1021.3 |
| 20260507083017 | 35 | 134 | 2.0 | 4.0 | 0.00 | 0.40 | 0.00 | 68 | 1021.3 |
| 20260507082015 | 35 | 138 | 1.0 | 3.0 | 0.00 | 0.40 | 0.00 | 68 | 1021.3 |
| 20260507081015 | 35 | 141 | 2.0 | 6.0 | 0.00 | 0.40 | 0.00 | 70 | 1021.2 |
| 20260507080016 | 35 | 138 | 2.0 | 5.0 | 0.00 | 0.40 | 0.00 | 71 | 1021.5 |
| 20260507075056 | 34 | 137 | 2.0 | 5.0 | 0.00 | 0.40 | 0.00 | 73 | 1021.7 |
| 20260507074017 | 34 | 141 | 2.0 | 6.0 | 0.00 | 0.40 | 0.00 | 75 | 1021.9 |
| 20260507073037 | 33 | 140 | 2.0 | 5.0 | 0.00 | 0.40 | 0.00 | 77 | 1022.0 |
| 20260507072017 | 33 | 138 | 2.0 | 6.0 | 0.00 | 0.40 | 0.00 | 78 | 1022.0 |
| 20260507071035 | 33 | 137 | 2.0 | 5.0 | 0.00 | 0.40 | 0.00 | 80 | 1021.9 |
| 20260507070036 | 33 | 137 | 2.0 | 6.0 | 0.00 | 0.40 | 0.00 | 81 | 1021.9 |
| 20260507065016 | 33 | 140 | 2.0 | 6.0 | 0.00 | 0.40 | 0.00 | 82 | 1021.9 |
| 20260507064016 | 33 | 137 | 1.0 | 4.0 | 0.00 | 0.40 | 0.00 | 82 | 1022.1 |
| 20260507063016 | 33 | 137 | 2.0 | 5.0 | 0.00 | 0.40 | 0.00 | 82 | 1021.9 |
| 20260507062017 | 33 | 136 | 2.0 | 4.0 | 0.00 | 0.40 | 0.00 | 82 | 1021.9 |
| 20260507061014 | 33 | 138 | 2.0 | 6.0 | 0.00 | 0.40 | 0.00 | 82 | 1022.0 |
| 20260507060015 | 33 | 137 | 2.0 | 4.0 | 0.00 | 0.40 | 0.00 | 83 | 1022.0 |
| 20260507055015 | 33 | 139 | 2.0 | 4.0 | 0.00 | 0.40 | 0.40 | 83 | 1022.1 |
| 20260507054016 | 33 | 140 | 2.0 | 5.0 | 0.00 | 0.40 | 0.40 | 83 | 1022.1 |
| 20260507053016 | 33 | 138 | 2.0 | 4.0 | 0.00 | 0.40 | 0.40 | 83 | 1022.0 |
| 20260507052037 | 33 | 134 | 2.0 | 4.0 | 0.00 | 0.40 | 0.40 | 83 | 1022.0 |
| 20260507051017 | 33 | 141 | 2.0 | 5.0 | 0.00 | 0.40 | 0.40 | 83 | 1021.9 |
| 20260507050014 | 33 | 140 | 2.0 | 4.0 | 0.00 | 0.40 | 0.40 | 83 | 1021.9 |
| 20260507045015 | 34 | 135 | 2.0 | 4.0 | 0.00 | 0.40 | 0.40 | 83 | 1021.9 |
| 20260507044016 | 34 | 137 | 3.0 | 7.0 | 0.00 | 0.40 | 0.40 | 83 | 1022.0 |
| 20260507043056 | 34 | 139 | 3.0 | 7.0 | 0.00 | 0.40 | 0.40 | 83 | 1022.0 |
| 20260507042016 | 34 | 139 | 3.0 | 7.0 | 0.00 | 0.40 | 0.40 | 83 | 1021.9 |
| 20260507041017 | 34 | 136 | 2.0 | 5.0 | 0.00 | 0.40 | 0.40 | 82 | 1021.9 |
| 20260507040017 | 34 | 139 | 3.0 | 7.0 | 0.00 | 0.40 | 0.40 | 82 | 1021.9 |
| 20260507035034 | 34 | 141 | 3.0 | 7.0 | 0.00 | 0.40 | 0.40 | 82 | 1021.8 |
| 20260507034035 | 35 | 139 | 2.0 | 8.0 | 0.00 | 0.40 | 0.40 | 81 | 1021.8 |
| 20260507033015 | 35 | 140 | 2.0 | 8.0 | 0.00 | 0.40 | 0.40 | 81 | 1021.7 |
| 20260507032056 | 35 | 141 | 2.0 | 7.0 | 0.00 | 0.40 | 0.40 | 81 | 1021.7 |
| 20260507031016 | 35 | 137 | 2.0 | 5.0 | 0.00 | 0.40 | 0.40 | 81 | 1021.7 |
| 20260507030016 | 35 | 140 | 1.0 | 4.0 | 0.00 | 0.40 | 0.40 | 82 | 1021.6 |
| 20260507025017 | 35 | 135 | 2.0 | 4.0 | 0.00 | 0.40 | 0.40 | 83 | 1021.5 |
| 20260507024014 | 35 | 141 | 1.0 | 4.0 | 0.00 | 0.40 | 0.40 | 83 | 1021.5 |
| 20260507023015 | 35 | 139 | 0.0 | 2.0 | 0.00 | 0.40 | 0.40 | 83 | 1021.5 |
| 20260507022016 | 35 | 132 | 0.0 | 2.0 | 0.01 | 0.40 | 0.40 | 82 | 1021.4 |
| 20260507021016 | 35 | 141 | 0.0 | 1.0 | 0.01 | 0.40 | 0.40 | 81 | 1021.5 |
| 20260507020016 | 36 | 146 | 0.0 | 1.0 | 0.01 | 0.40 | 0.40 | 79 | 1021.5 |
| 20260507015017 | 36 | 146 | 0.0 | 1.0 | 0.01 | 0.40 | 0.40 | 77 | 1021.6 |
| 20260507014017 | 37 | 137 | 0.0 | 2.0 | 0.02 | 0.40 | 0.40 | 76 | 1021.6 |
| 20260507013035 | 37 | 129 | 0.0 | 2.0 | 0.02 | 0.40 | 0.40 | 74 | 1021.6 |
| 20260507012015 | 38 | 131 | 1.0 | 2.0 | 0.02 | 0.39 | 0.39 | 73 | 1021.7 |
| 20260507011016 | 38 | 136 | 0.0 | 3.0 | 0.02 | 0.39 | 0.39 | 72 | 1021.8 |
| 20260507010036 | 38 | 136 | 1.0 | 4.0 | 0.02 | 0.39 | 0.39 | 72 | 1021.8 |
| 20260507005019 | 39 | 137 | 1.0 | 3.0 | 0.03 | 0.39 | 0.39 | 71 | 1021.8 |
| 20260507004017 | 39 | 141 | 1.0 | 2.0 | 0.03 | 0.39 | 0.39 | 70 | 1021.8 |
| 20260507003017 | 39 | 126 | 0.0 | 1.0 | 0.04 | 0.39 | 0.39 | 70 | 1021.9 |
| 20260507002035 | 40 | 136 | 1.0 | 3.0 | 0.05 | 0.38 | 0.38 | 68 | 1021.9 |
| 20260507001015 | 40 | 135 | 0.0 | 2.0 | 0.06 | 0.38 | 0.38 | 69 | 1021.9 |
| 20260507000015 | 40 | 147 | 1.0 | 4.0 | 0.06 | 0.37 | 0.37 | 69 | 1021.9 |
| 20260506235016 | 40 | 134 | 1.0 | 2.0 | 0.07 | 0.36 | 0.36 | 68 | 1021.9 |
| 20260506234016 | 40 | 136 | 0.0 | 3.0 | 0.07 | 0.35 | 0.35 | 69 | 1021.9 |
| 20260506233017 | 41 | 135 | 1.0 | 3.0 | 0.07 | 0.35 | 0.35 | 67 | 1022.0 |
| 20260506232017 | 40 | 138 | 0.0 | 2.0 | 0.06 | 0.33 | 0.33 | 67 | 1022.0 |
| 20260506231035 | 40 | 280 | 0.0 | 4.0 | 0.07 | 0.32 | 0.32 | 68 | 1022.1 |
| 20260506230015 | 39 | 140 | 0.0 | 2.0 | 0.06 | 0.31 | 0.31 | 71 | 1022.1 |
| 20260506225016 | 37 | 141 | 0.0 | 2.0 | 0.06 | 0.29 | 0.29 | 72 | 1022.2 |
| 20260506224056 | 37 | 137 | 1.0 | 3.0 | 0.06 | 0.29 | 0.28 | 72 | 1022.4 |
| 20260506223056 | 37 | 120 | 0.0 | 1.0 | 0.07 | 0.28 | 0.28 | 74 | 1022.4 |
| 20260506222016 | 36 | 134 | 1.0 | 4.0 | 0.08 | 0.28 | 0.27 | 74 | 1022.5 |
| 20260506221017 | 36 | 130 | 0.0 | 2.0 | 0.07 | 0.28 | 0.25 | 74 | 1022.6 |
| 20260506220015 | 36 | 136 | 1.0 | 2.0 | 0.08 | 0.28 | 0.24 | 76 | 1022.7 |
| 20260506215015 | 35 | 136 | 0.0 | 1.0 | 0.08 | 0.27 | 0.23 | 77 | 1022.8 |
| 20260506214035 | 35 | 143 | 1.0 | 2.0 | 0.09 | 0.27 | 0.22 | 77 | 1022.8 |
| 20260506213016 | 35 | 138 | 1.0 | 3.0 | 0.09 | 0.26 | 0.20 | 78 | 1022.9 |
| 20260506212036 | 36 | 132 | 1.0 | 3.0 | 0.10 | 0.25 | 0.19 | 78 | 1023.0 |
| 20260506211037 | 36 | 96 | 0.0 | 1.0 | 0.12 | 0.26 | 0.18 | 80 | 1023.0 |
| 20260506210017 | 36 | 96 | 0.0 | 1.0 | 0.13 | 0.25 | 0.17 | 79 | 1023.1 |
| 20260506205015 | 35 | 108 | 0.0 | 1.0 | 0.12 | 0.24 | 0.15 | 79 | 1023.1 |
| 20260506204035 | 36 | 97 | 0.0 | 2.0 | 0.10 | 0.24 | 0.13 | 79 | 1023.2 |
| 20260506203015 | 37 | 22 | 0.0 | 1.0 | 0.09 | 0.23 | 0.11 | 80 | 1023.4 |
| 20260506202016 | 36 | 310 | 0.0 | 1.0 | 0.06 | 0.22 | 0.09 | 79 | 1023.5 |
| 20260506201016 | 37 | 261 | 0.0 | 1.0 | 0.05 | 0.20 | 0.06 | 79 | 1023.5 |
| 20260506200037 | 36 | 95 | 0.0 | 2.0 | 0.02 | 0.19 | 0.04 | 80 | 1023.5 |
| 20260506195017 | 37 | 95 | 0.0 | 1.0 | 0.02 | 0.19 | 0.03 | 80 | 1023.4 |
| 20260506194015 | 37 | 314 | 0.0 | 1.0 | 0.01 | 0.19 | 0.02 | 80 | 1023.4 |
| 20260506193015 | 37 | 181 | 0.0 | 1.0 | 0.02 | 0.20 | 0.02 | 83 | 1023.5 |
| 20260506192015 | 36 | 308 | 0.0 | 2.0 | 0.02 | 0.20 | 0.02 | 83 | 1023.5 |
| 20260506191016 | 35 | 98 | 0.0 | 1.0 | 0.01 | 0.20 | 0.02 | 85 | 1023.6 |
| 20260506190017 | 35 | 76 | 0.0 | 3.0 | 0.01 | 0.21 | 0.02 | 86 | 1023.6 |
| 20260506185057 | 34 | 317 | 0.0 | 3.0 | 0.01 | 0.22 | 0.02 | 88 | 1023.6 |
| 20260506184035 | 33 | 304 | 0.0 | 1.0 | 0.01 | 0.22 | 0.02 | 89 | 1023.7 |
| 20260506183015 | 33 | 309 | 1.0 | 5.0 | 0.00 | 0.22 | 0.01 | 88 | 1023.8 |
| 20260506182015 | 33 | 340 | 0.0 | 3.0 | 0.00 | 0.22 | 0.01 | 89 | 1023.7 |
| 20260506181016 | 33 | 325 | 1.0 | 5.0 | 0.01 | 0.22 | 0.01 | 89 | 1023.6 |
| 20260506180057 | 33 | 303 | 1.0 | 4.0 | 0.01 | 0.22 | 0.01 | 89 | 1023.5 |
| 20260506175036 | 33 | 300 | 1.0 | 4.0 | 0.01 | 0.22 | 0.01 | 89 | 1023.4 |
| 20260506174017 | 34 | 35 | 0.0 | 2.0 | 0.01 | 0.22 | 0.01 | 90 | 1023.4 |
| 20260506173014 | 34 | 18 | 0.0 | 1.0 | 0.01 | 0.23 | 0.01 | 89 | 1023.4 |
| 20260506172015 | 34 | 97 | 0.0 | 1.0 | 0.01 | 0.23 | 0.01 | 89 | 1023.3 |
| 20260506171015 | 34 | 10 | 0.0 | 2.0 | 0.00 | 0.22 | 0.00 | 89 | 1023.1 |
| 20260506170036 | 34 | 281 | 0.0 | 2.0 | 0.00 | 0.22 | 0.00 | 90 | 1022.8 |
| 20260506165016 | 33 | 307 | 0.0 | 3.0 | 0.00 | 0.22 | 0.00 | 90 | 1022.7 |
| 20260506164017 | 33 | 305 | 0.0 | 3.0 | 0.00 | 0.22 | 0.00 | 90 | 1022.7 |
| 20260506163017 | 33 | 302 | 0.0 | 3.0 | 0.00 | 0.22 | 0.00 | 90 | 1022.6 |
| 20260506162015 | 33 | 271 | 0.0 | 2.0 | 0.00 | 0.22 | 0.00 | 91 | 1022.7 |
| 20260506161035 | 33 | 15 | 0.0 | 3.0 | 0.00 | 0.22 | 0.00 | 91 | 1022.4 |
| 20260506160016 | 33 | 42 | 0.0 | 1.0 | 0.00 | 0.22 | 0.00 | 92 | 1022.5 |
| 20260506155016 | 32 | 209 | 0.0 | 1.0 | 0.00 | 0.22 | 0.00 | 92 | 1022.6 |
| 20260506154016 | 32 | 46 | 0.0 | 1.0 | 0.00 | 0.22 | 0.00 | 91 | 1022.6 |
| 20260506153016 | 32 | 60 | 0.0 | 3.0 | 0.00 | 0.22 | 0.00 | 92 | 1022.4 |
| 20260506152017 | 32 | 330 | 0.0 | 1.0 | 0.00 | 0.22 | 0.00 | 92 | 1022.2 |
| 20260506151015 | 32 | 215 | 0.0 | 1.0 | 0.00 | 0.22 | 0.00 | 92 | 1022.0 |
| 20260506150015 | 32 | 0.0 | 0.0 | 0.00 | 0.22 | 0.00 | 92 | 1021.9 | |
| 20260506145056 | 32 | 0.0 | 0.0 | 0.00 | 0.22 | 0.00 | 92 | 1021.9 | |
| 20260506144016 | 32 | 151 | 0.0 | 2.0 | 0.00 | 0.22 | 0.00 | 93 | 1021.8 |
| 20260506143016 | 31 | 0.0 | 0.0 | 0.00 | 0.23 | 0.00 | 93 | 1021.8 | |
| 20260506142016 | 31 | 0.0 | 0.0 | 0.00 | 0.23 | 0.00 | 93 | 1021.7 | |
| 20260506141037 | 31 | 0.0 | 0.0 | 0.00 | 0.23 | 0.00 | 93 | 1021.8 | |
| 20260506140014 | 31 | 0.0 | 0.0 | 0.00 | 0.24 | 0.00 | 93 | 1021.8 | |
| 20260506135035 | 31 | 0.0 | 0.0 | 0.00 | 0.24 | 0.00 | 94 | 1021.7 | |
| 20260506134035 | 31 | 0.0 | 0.0 | 0.00 | 0.24 | 0.00 | 94 | 1021.6 | |
| 20260506133016 | 30 | 0.0 | 0.0 | 0.00 | 0.24 | 0.00 | 94 | 1021.5 | |
| 20260506132016 | 30 | 0.0 | 0.0 | 0.00 | 0.24 | 0.00 | 94 | 1021.2 | |
| 20260506131016 | 30 | 0.0 | 0.0 | 0.00 | 0.24 | 0.00 | 94 | 1020.9 | |
| 20260506130037 | 30 | 0.0 | 0.0 | 0.00 | 0.24 | 0.00 | 94 | 1020.9 | |
| 20260506125015 | 30 | 0.0 | 0.0 | 0.00 | 0.25 | 0.00 | 94 | 1020.8 | |
| 20260506124015 | 30 | 0.0 | 0.0 | 0.00 | 0.25 | 0.00 | 94 | 1020.6 | |
| 20260506123015 | 29 | 0.0 | 0.0 | 0.00 | 0.26 | 0.00 | 94 | 1020.5 | |
| 20260506122016 | 29 | 0.0 | 0.0 | 0.00 | 0.27 | 0.00 | 94 | 1020.7 | |
| 20260506121016 | 29 | 0.0 | 0.0 | 0.00 | 0.27 | 0.00 | 94 | 1020.5 | |
| 20260506120017 | 29 | 0.0 | 0.0 | 0.00 | 0.28 | 0.00 | 94 | 1020.4 | |
| 20260506115057 | 29 | 0.0 | 0.0 | 0.00 | 0.28 | 0.00 | 94 | 1020.5 | |
| 20260506114015 | 29 | 0.0 | 0.0 | 0.00 | 0.28 | 0.00 | 94 | 1020.0 | |
| 20260506113015 | 29 | 0.0 | 0.0 | 0.00 | 0.28 | 0.00 | 94 | 1019.8 | |
| 20260506112015 | 29 | 0.0 | 0.0 | 0.00 | 0.29 | 0.00 | 94 | 1020.0 | |
| 20260506111016 | 29 | 0.0 | 0.0 | 0.00 | 0.30 | 0.00 | 94 | 1020.1 | |
| 20260506110016 | 29 | 0.0 | 0.0 | 0.00 | 0.30 | 0.00 | 94 | 1020.0 | |
| 20260506105017 | 29 | 0.0 | 0.0 | 0.00 | 0.30 | 0.00 | 94 | 1019.8 | |
| 20260506104017 | 29 | 0.0 | 0.0 | 0.00 | 0.30 | 0.00 | 94 | 1019.9 | |
| 20260506103035 | 29 | 0.0 | 0.0 | 0.00 | 0.30 | 0.00 | 94 | 1020.0 | |
| 20260506102015 | 29 | 0.0 | 0.0 | 0.00 | 0.30 | 0.00 | 94 | 1020.0 | |
| 20260506101015 | 29 | 0.0 | 0.0 | 0.00 | 0.30 | 0.00 | 94 | 1019.9 | |
| 20260506100016 | 29 | 0.0 | 0.0 | 0.00 | 0.30 | 0.00 | 94 | 1019.8 | |
| 20260506095016 | 30 | 0.0 | 0.0 | 0.00 | 0.30 | 0.00 | 95 | 1019.9 |